Weather in Sachkovichi

Russia / Bryansk Oblast     52°20′57″N   32°13′07″E
temp.,
°C
wind,
m/s
gust,
m/s
humid.,
%
clouds,
%
prec.,
mm/h
press.,
hPa
HPBL,
m
20 april, tue
tue2000:00+6ne499262 0.1 1016421
03:00+6ne5891100 0.1 1015452
06:00+5ne5892100 0.0 1014361
09:00+7ne568391 0.1 1013578
12:00+10ne5566100 0.2 10111190
15:00+8ne5687100 0.6 1010541
18:00+7nne5893100 1.6 1009536
21:00+6n5896100 4.8 1008417
21 april, wed
wed2100:00+6ne3696100 2.8 1007341
03:00+5nne4693100 3.6 1007377
06:00+5nnw2495100 0.8 1007447
09:00+5nw2490100 1.4 1009656
12:00+6wnw3382100 0.1 1010716
15:00+8wsw457991 0.4 1011756
18:00+9wsw467068 0.5 1011827
21:00+7sw3480100 0.6 101280
22 april, thu
thu2200:00+6s488554 0.1 1013189
03:00+5s3894100 0.1 1013165
06:00+4s499418 0.0 1014171
09:00+9ssw598171 0.0 1014424
12:00+14ssw79635 0.5 10141312
15:00+16sw8104786 0.9 10132384
18:00+14ssw596874 0.1 1014522
21:00+11s387994 0.3 1014169
23 april, fri
fri2300:00+9s4118876 0.3 1013227
03:00+9ssw4109162 1.0 1013310
06:00+7ssw4896100 0.2 1014243
09:00+8wnw239198 0.4 1015385
12:00+7nw4578100 0.1 1015634
15:00+5nw5892100 0.7 1016615
18:00+4nnw2490100 0.7 1016361
21:00+4ssw2394100 0.8 101662
24 april, sat
sat2400:00+4ssw3794100 0.1 1015210
03:00+2w389115 0.1 1014188
06:000wsw49930 0.0 1014208
09:00+4w697524 0.0 1014896
12:00+7w7952100 0.5 10142062
15:00+6w795799 0.6 10151562
18:00+6w685541 0.1 10151627
21:00+3sw4976100 0.1 1015228